Parc national de Yoho, Colombie-Britannique

Conditions des dernières 24 heures

Ce tableau est un sommaire des conditions météo couvrant les dernières 24 heures. Ce sommaire inclut les paramètres suivants: température, humidité, point de rosée, direction et vitesse du vent, pression barométrique, facteur de refroidissement éolien ou indice humidex.
Date / Heure
(HAR)
Conditions Temp (°C) Humidite (%) Point de rose (°C) Vent (km/h) Pression (kPa) Visibilité (km)
29 août 2014
1:00 N.D. 7   98 7 NE 4 101,9 N.D.
0:00 N.D. 7   99 7 E 6 101,9 N.D.
28 août 2014
23:00 N.D. 7   99 6 calme 101,9 N.D.
22:00 N.D. 7   99 6 ENE 4 101,9 N.D.
21:00 N.D. 7   98 6 ONO 5 101,8 N.D.
20:00 N.D. 9 96 8 calme 101,8 N.D.
19:00 N.D. 9 96 9 SO 8 101,8 N.D.
18:00 N.D. 9 96 9 O 6 101,8 N.D.
17:00 N.D. 12 89 10 OSO 16 101,6 N.D.
16:00 N.D. 12 84 9 OSO 20 101,6 N.D.
15:00 N.D. 11 90 9 OSO 16 101,6 N.D.
14:00 N.D. 11 90 9 SO 16 101,6 N.D.
13:00 N.D. 9 95 8 NO 4 101,6 N.D.
12:00 N.D. 9 98 9 O 12 101,7 N.D.
11:00 N.D. 9 97 9 OSO 20 101,7 N.D.
10:00 N.D. 9 97 9 ONO 4 101,6 N.D.
9:00 N.D. 9 96 9 OSO 2 101,5 N.D.
8:00 N.D. 9 97 9 OSO 3 101,5 N.D.
7:00 N.D. 9 94 8 SO 9 101,5 N.D.
6:00 N.D. 12 67 6 NO 5 101,3 N.D.
5:00 N.D. 11 71 6 O 10 101,3 N.D.
4:00 N.D. 11 74 7 O 19 rafale 27 101,2 N.D.
3:00 N.D. 11 73 7 O 17 101,2 N.D.
2:00 N.D. 13   65 6 OSO 19 rafale 29 101,1 N.D.
1:00 N.D. 13   66 7 SO 15 101,1 N.D.
N.D.
non disponible
 ↑ 
température la plus haute
 ↓ 
température la plus basse

Si vous désirez plus de données historiques sur les conditions météo, s.v.p. visitez Données climatologiques en ligne.